Regional Weather Roundup
Issued by NWS

Home | Current Version | Previous Version | Text Only | Print | Product List | Glossary On
Versions: 1 2 3 4 5 6 7 8 9 10 11 12 13 14 15 16 17 18 19 20 21 22 23 24 25 26 27 28 29 30 31 32 33 34 35 36 37 38 39 40 41 42 43 44 45 46 47 48 49 50
401
ASUS43 KDTX 241810
RWRMI
MICHIGAN HOURLY REGIONAL WEATHER ROUNDUP
NATIONAL WEATHER SERVICE DETROIT/PONTIAC MI
ISSUED BY NATIONAL WEATHER SERVICE GRAND RAPIDS MI
100 PM EST TUE JAN 24 2017

NOTE: "FAIR" INDICATES FEW OR NO CLOUDS BELOW 12,000 FEET WITH NO
SIGNIFICANT WEATHER AND/OR OBSTRUCTION TO VISIBILITY.

MIZ047>049-052>055-059>063-066>070-074>076-081>083-241900-
SOUTHEAST LOWER MICHIGAN

CITY           SKY/WX    TMP DP  RH WIND       PRES   REMARKS
ADRIAN         CLOUDY    40  37  89 NW12      29.78F WCI  33
6HR MIN TEMP:  38; 6HR MAX TEMP:  40; 6HR PCP: TRACE;

ALMA           CLOUDY    38  36  91 W10G17    29.79F WCI  31
6HR MIN TEMP:  37; 6HR MAX TEMP:  40;

ANN ARBOR      CLOUDY    39  38  96 W14G22    29.76F WCI  31
BAD AXE        LGT RAIN  36  36 100 N7        29.75S WCI  30
DETROIT CITY   CLOUDY    39  39 100 NW9       29.75F FOG     WCI  33
6HR MIN TEMP:  38; 6HR MAX TEMP:  40; 6HR PCP:  0.01;

DETROIT        CLOUDY    41  38  89 NW12      29.76F
6HR MIN TEMP:  39; 6HR MAX TEMP:  42; 6HR PCP: TRACE;

FLINT          CLOUDY    38  36  92 W10       29.77F WCI  31
6HR MIN TEMP:  35; 6HR MAX TEMP:  38; 6HR PCP:  0.03;

GROSSE ILE     CLOUDY    40  38  93 NW7       29.75F
6HR MIN TEMP:  37; 6HR MAX TEMP:  40; 6HR PCP:  0.01;

HILLSDALE      CLOUDY    37  34  87 NW13G18   29.76F WCI  29
HOWELL         CLOUDY    38  36  94 NW8       29.77F FOG     WCI  32

CITY           SKY/WX    TMP DP  RH WIND       PRES   REMARKS
JACKSON        CLOUDY    38  35  89 NW15G22   29.77F WCI  29
6HR MIN TEMP:  37; 6HR MAX TEMP:  40; 6HR PCP: TRACE;

LANSING        CLOUDY    38  34  85 NW8       29.79F WCI  32
6HR MIN TEMP:  37; 6HR MAX TEMP:  38;

MASON          CLOUDY    37  36  96 W9        29.78F WCI  30
MONROE         CLOUDY    41  40  97 NW9       29.76F
6HR MIN TEMP:  38; 6HR MAX TEMP:  41;

MT. CLEMENS    DRIZZLE   39  39 100 W9        29.72F FOG     WCI  33
6HR MIN TEMP:  37; 6HR MAX TEMP:  40; 6HR PCP:  0.07;

PONTIAC        DRIZZLE   38  35  89 NW13      29.73F FOG     WCI  30
6HR MIN TEMP:  35; 6HR MAX TEMP:  38; 6HR PCP: TRACE;

PORT HOPE        N/A     36  35  96 NW5       29.73F WCI  32
6HR MIN TEMP:  34; 6HR MAX TEMP:  36;

PORT HURON     DRIZZLE   37  36  93 NW6       29.73F WCI  33
TRI CITIES     CLOUDY    39  37  92 W10       29.77F WCI  32
6HR MIN TEMP:  36; 6HR MAX TEMP:  39; 6HR PCP:  0.04;

YPSILANTI      CLOUDY    41  39  93 NW12      29.76F
6HR MIN TEMP:  39; 6HR MAX TEMP:  42; 6HR PCP:  0.01;

$$
MIZ043>046-050>051-056>058-064>065-071>073-077>080-241900-
SOUTHWEST LOWER MICHIGAN

CITY           SKY/WX    TMP DP  RH WIND       PRES   REMARKS
BATTLE CREEK   CLOUDY    38  36  92 NW12      29.80F WCI  30
6HR MIN TEMP:  38; 6HR MAX TEMP:  39;

BENTON HARBOR  CLOUDY    38  34  85 W10       29.85F WCI  31
6HR MIN TEMP:  38; 6HR MAX TEMP:  39;

BIG RAPIDS     CLOUDY    37  35  92 NW8       29.78F WCI  31
6HR MIN TEMP:  35; 6HR MAX TEMP:  37;

COLDWATER      CLOUDY    38  37  94 NW12G18   29.79F WCI  31
6HR MIN TEMP:  38; 6HR MAX TEMP:  39;

HOLLAND        CLOUDY    39  36  89 NW7       29.83F WCI  34
6HR MIN TEMP:  38; 6HR MAX TEMP:  39;

GRAND RAPIDS   CLOUDY    39  33  79 NW14      29.80F WCI  31
6HR MIN TEMP:  37; 6HR MAX TEMP:  39;

KALAMAZOO      CLOUDY    40  33  76 NW12      29.81F WCI  33
6HR MIN TEMP:  38; 6HR MAX TEMP:  40; 6HR PCP: TRACE;

MARSHALL       CLOUDY    38  35  89 NW6       29.79F WCI  34
6HR MIN TEMP:  38; 6HR MAX TEMP:  39;

MOUNT PLEASANT CLOUDY    37  37  98 W7        29.78F WCI  32
6HR MIN TEMP:  36; 6HR MAX TEMP:  37; 6HR PCP:  0.01;

MUSKEGON       CLOUDY    40  37  89 NW9       29.82F FOG     WCI  34
6HR MIN TEMP:  38; 6HR MAX TEMP:  40; 6HR PCP: TRACE;

STURGIS        CLOUDY    38  35  89 NW9       29.80F WCI  32
6HR MIN TEMP:  37; 6HR MAX TEMP:  38;

$$
MIZ016>042-241900-
NORTHERN LOWER MICHIGAN

CITY           SKY/WX    TMP DP  RH WIND       PRES   REMARKS
ALPENA         LGT RAIN  36  34  92 NE3       29.76F FOG
6HR MIN TEMP:  34; 6HR MAX TEMP:  37; 6HR PCP:  0.06;

BEAVER ISLAND  FOG       34  34 100 NW3       29.79F VSB 1/4
6HR MIN TEMP:  33; 6HR MAX TEMP:  35;

BELLAIRE       CLOUDY    35  35 100 CALM      29.79F
6HR MIN TEMP:  33; 6HR MAX TEMP:  35;

CADILLAC       CLOUDY    36  35  96 W7        29.76F FOG     WCI  30
CHARLEVOIX     FOG       35  35 100 NW6       29.81F VSB 1/4 WCI  30
GAYLORD        FOG       35  32  88 NW5       29.75F VSB 1/4 WCI  31
6HR MIN TEMP:  35; 6HR MAX TEMP:  35; 6HR PCP: TRACE;

HOUGHTON LAKE  CLOUDY    35  34  96 NW6       29.76F WCI  30
6HR MIN TEMP:  34; 6HR MAX TEMP:  36;

MANISTEE       MIX PCPN  37  36  96 NW6       29.80F WCI  32
OSCODA         MIX PCPN  37  36  96 N3        29.75F
6HR MIN TEMP:  35; 6HR MAX TEMP:  37;

PELLSTON       CLOUDY    35  33  92 NW7       29.77F FOG     WCI  29
6HR MIN TEMP:  33; 6HR MAX TEMP:  35; 6HR PCP: TRACE;

TRAVERSE CITY  DRIZZLE   38  37  97 NW7       29.78F FOG     WCI  33
6HR MIN TEMP:  36; 6HR MAX TEMP:  38; 6HR PCP: TRACE;

LUDINGTON      CLOUDY    37  37  99 N5        29.81F FOG     WCI  34
6HR MIN TEMP:  36; 6HR MAX TEMP:  38;

$$
MIZ007>008-015-241900-
EASTERN UPPER MICHIGAN

CITY           SKY/WX    TMP DP  RH WIND       PRES   REMARKS
KINROSS        CLOUDY    35  33  92 CALM      29.78F
6HR MIN TEMP:  32; 6HR MAX TEMP:  35; 6HR PCP:  0.03;

MACKINAC ISLAN CLOUDY    33  33 100 E6        29.77F FOG     WCI  27
6HR MIN TEMP:  32; 6HR MAX TEMP:  33; 6HR PCP:  0.02;

NEWBERRY       FOG       33  32  97 NW5       29.78F VSB 1/2 WCI  28
6HR MIN TEMP:  32; 6HR MAX TEMP:  33;

S. S. MARIE    CLOUDY    35  33  92 CALM      29.77F FOG
6HR MIN TEMP:  34; 6HR MAX TEMP:  36; 6HR PCP:  0.03;

$$
MIZ004>006-011>014-085-241900-
CENTRAL UPPER MICHIGAN

CITY           SKY/WX    TMP DP  RH WIND       PRES   REMARKS
MANISTIQUE     CLOUDY    35  34  97 N9        29.79F WCI  28
6HR MIN TEMP:  32; 6HR MAX TEMP:  35;

ESCANABA       LGT RAIN  37  35  92 NW5       29.81F WCI  33
                                      6HR PCP: TRACE;

SAWYER-GWINN   CLOUDY    34  34 100 N7        29.80F WCI  28
$$
MIZ001>003-009>011-084-241900-
WESTERN UPPER MICHIGAN

CITY           SKY/WX    TMP DP  RH WIND       PRES   REMARKS
IRON MOUNTAIN  CLOUDY    36  31  82 NW6       29.79F WCI  31
6HR MIN TEMP:  34; 6HR MAX TEMP:  36;

HOUGHTON       CLOUDY    36  33  89 NW10      29.80F WCI  28
6HR MIN TEMP:  34; 6HR MAX TEMP:  36;

COPPER HARBOR    N/A     36  33  89 N8        29.81F WCI  30
IRONWOOD       CLOUDY    34  28  80 NW5       29.84F WCI  30
6HR MIN TEMP:  32; 6HR MAX TEMP:  34;

$$

ABBREVIATIONS USED IN REMARKS
   TC - TEMPERATURE IN CELSIUS
  WCI - WIND CHILL INDEX
   HX - HEAT INDEX
  VSB - VISIBILITY





USA.gov is the U.S. government's official web portal to all federal, state and local government web resources and services.